IRIDIUM 33 DEB, 34690

Orbit data source: Space-Track

IRIDIUM 33 DEB, 34690 is space debris in LEO originally from a launch on Sun, 14 Sep 1997 UTC launched from the Tyuratam Missile And Space Complex (TTMTR). The debris from Iridium 33, an American commercial communications satellite, has been tracked extensively since its accidental collision with the defunct Russian satellite Cosmos 2251 in 2009. This event, occurring at high speed in low Earth orbit (LEO), generated thousands of pieces of space debris, significantly increasing the risk of further collisions. The Iridium 33 debris cloud has impacted space traffic management and orbital debris mitigation strategies, making it a subject of ongoing study in space situational awareness.

Loading next visibility...
Identifier
34690, 1997-051KM
Orbit
LEO
Country
Flag of USUS
Related business
Manufacturer
Unknown
Mission
Spacecraft
Bus & Motor
Unknown
Mass
Unknown
Launch date (UTC)
1997-09-14 (28 years ago)
Launch vehicle
Unknown
Launch site
Tyuratam Missile And Space Complex (TTMTR)
Object type
Payload
Rocket body
Debris
Shape & HBR
Unknown shape, 0.1 m
Radar Cross Section
Small (<0.1 m²)

Expand to show TLE details & history
Last TLE update: 22 hours ago

TLE from 22 hours ago
0 IRIDIUM 33 DEB
1 34690U 97051KM  25353.10434763  .00001438  00000-0  32814-3 0  9997
2 34690  86.3778  34.2255 0010093   8.4720  50.0408 14.55118004881876
Epoch: 2025-12-19T02:30Z
TLE epoch observation values (Epoch: 2025-12-19T02:30:15.635Z)
Latitude
58.51159°
Longitude
-85.38983°
Altitude
714.371 km
Speed
7.506 km/s
True Right ascension
02h 40m 30s
True Declination
58° 21' 26"
Sunlit
Object was in full shadow at epoch
Visualization orbit readout
Latitude
Unknown
Longitude
Unknown
Altitude
Unknown
Speed
Unknown
Apparent Right ascension
Unknown
Apparent Declination
Unknown
Sunlit
N/A
Visualization observer readout
Local Sidereal Time
23:44:11
Azimuth
Unknown
Elevation
Unknown
Doppler factor
Unknown
Orbital elements
Apogee altitude
713.067 km
Perigee altitude
698.767 km
Semi-major axis
7,084.054 km
Eccentricity
0.00101
Inclination
86.3778°
RAAN
34.2255°
Arg. of periapsis
8.472°
True anomaly
50.12952°
Mean anomaly
50.0408°
Eccentric anomaly
50.08515°
Mean motion
3.64016 °/min
Orbital period
98.9 mins
BSTAR
0.00032814
Loading maneuver chart data...
Computing Atmospheric mass density...
Loading historical data...
Loading historical data...
Loading historical data...
Loading historical data...
Loading historical data...
Loading historical data...
Loading historical data...

Documentation

Showing up to 5 results
|